Location: Pensacola
(30.4142°N, 87.2155°W)
Time: 19:17:45
(UTC-05:00)

AO-27 - Pass Details

Date: 02 June 2024
Orbit: 783 x 797 km, 98.8° (Epoch: 21 June)

Event Time Altitude Azimuth Distance (km) Brightness Sun altitude
Exits shadow 20:30:49 11° 119° (ESE) 2,275 9.4 -9.0°
Maximum altitude 20:34:37 24° 69° (ENE) 1,602 9.0 -9.7°
Drops below altitude 10° 20:38:40 10° 17° (NNE) 2,352 10.3 -10.4°
Sets 20:41:23 0° 4° (N) 3,282 11.3 -10.9°
